Regional Weather Roundup
Issued by NWS Charleston, WV

Home | Current Version | Previous Version | Text Only | Print | Product List | Glossary On
Versions: 1 2 3 4 5 6 7 8 9 10 11 12 13 14 15 16 17 18 19 20 21 22 23 24 25 26 27
000
ASUS41 KRLX 171310
RWRRLX
West Virginia Regional Weather Roundup
National Weather Service Charleston WV
900 AM EDT TUE OCT 17 2017

Note: "fair" indicates few or no clouds below 12,000 feet with no
significant weather and/or obstructions to visibility.

WVZ003-171400-
Northern Panhandle of West Virginia

CITY           SKY/WX    TMP DP  RH WIND       PRES   REMARKS
WHEELING       SUNNY     40  37  89 S3        30.37R
$$

WVZ009-171400-
Northwest West Virginia

CITY           SKY/WX    TMP DP  RH WIND       PRES   REMARKS
PARKERSBURG    SUNNY     39  39 100 CALM      30.42R
$$

WVZ006-171400-
Western West Virginia

CITY           SKY/WX    TMP DP  RH WIND       PRES   REMARKS
HUNTINGTON     SUNNY     40  39  97 CALM      30.39R
$$

WVZ015-171400-
West Central West Virginia

CITY           SKY/WX    TMP DP  RH WIND       PRES   REMARKS
CHARLESTON     FOG       41  40  96 S3        30.40R VSB 1/4
$$

WVZ022-031-171400-
North Central West Virginia

CITY           SKY/WX    TMP DP  RH WIND       PRES   REMARKS
CLARKSBURG     FOG       38  38 100 CALM      30.39R VSB 1/4
MORGANTOWN     SUNNY     39  36  89 CALM      30.39R
$$

WVZ025-035-042-045-171400-
Southern West Virginia

CITY           SKY/WX    TMP DP  RH WIND       PRES   REMARKS
BECKLEY        SUNNY     40  37  89 CALM      30.38R
LOGAN          FOG       39  39 100 CALM      30.38R VSB<1/4
BLUEFIELD      SUNNY     41  35  79 CALM      30.37R
LEWISBURG      FOG       32  32  99 CALM      30.39R VSB 1/4
$$

WVZ047-171400-
Northern Mountains of West Virginia

CITY           SKY/WX    TMP DP  RH WIND       PRES   REMARKS
ELKINS         FOG       35  34  96 CALM      30.40R VSB 1/4
$$

WVZ052-171400-
Eastern Panhandle of West Virginia

CITY           SKY/WX    TMP DP  RH WIND       PRES   REMARKS
MARTINSBURG    SUNNY     42  36  79 CALM      30.38R
PETERSBURG     FOG       35  34  99 CALM      30.41R VSB 1/2
$$




USA.gov is the U.S. government's official web portal to all federal, state and local government web resources and services.